Location: Wald
(31.7579°N, 86.6655°W)
Time: 12:00:59
(UTC+00:00)

ARIANE 5 R/B - Pass Details

Date: 14 July 2020
Orbit: 749 x 794 km, 98.6° (Epoch: 08 August)

Event Time Altitude Azimuth Distance (km) Brightness Sun altitude
Rises 09:36:10 0° 353° (N) 3,238 6.2 -14.5°
Reaches altitude 10° 09:39:03 10° 337° (NNW) 2,317 5.2 -14.0°
Maximum altitude 09:42:36 19° 292° (WNW) 1,762 4.1 -13.4°
Enters shadow 09:44:50 15° 261° (W) 2,004 4.1 -13.0°
